Weather History for Evanston, WY

Change the Weather History Date:

Wednesday, January 2, 2013

  Actual Average Record
Temperature  
Mean Temperature 6 °F 21 °F  
Max Temperature 14 °F 28 °F 45 °F (2012)
Min Temperature -3 °F 14 °F -4 °F (2011)
Degree Days  
Heating Degree Days 59 44  
Month to date heating degree days 115 88  
Since 1 July heating degree days 3089 3567  
Cooling Degree Days 0 0  
Month to date cooling degree days 0 0  
Year to date cooling degree days 0 0  
Moisture  
Dew Point 1 °F    
Average Humidity 83    
Maximum Humidity 95    
Minimum Humidity 70    
Precipitation  
Precipitation 0.00 in 0.02 in 0.12 in (2006)
Month to date precipitation 0.00 0.04  
Year to date precipitation 0.00 0.04  
Sea Level Pressure  
Sea Level Pressure 30.38 in    
Wind  
Wind Speed 1 mph (ENE)    
Max Wind Speed 7 mph    
Max Gust Speed 8 mph    
Visibility 5 miles    
Events Fog    
T = Trace of Precipitation, MM = Missing Value Source: NWS Daily Summary

Daily Weather History Graph

Daily Weather History Graph

Search for Another Location

Airport:

Trip Planner

Search our weather history database for the weather conditions in past years. The results will help you decide how hot, cold, wet, or windy it might be!

Date:

Astronomy

Jan. 02, 2013 Rise Set
Actual Time 7:50 AM MST 5:06 PM MST
Civil Twilight 7:18 AM MST 5:38 PM MST
Nautical Twilight 6:44 AM MST 6:12 PM MST
Astronomical Twilight 6:10 AM MST 6:46 PM MST
Moon 10:46 PM MST (1/2) 10:30 AM MST (1/2)
Length of Visible Light 10h 19m
Length of Day
9h 16m
Waning Gibbous, 74% of the Moon is Illuminated
Jan 2
Waning Gibbous
Jan 4
Last Quarter
Jan 11
New
Jan 18
First Quarter
Jan 26
Full

Hourly Weather History & Observations

Time (MST) Temp. Windchill Dew Point Humidity Pressure Visibility Wind Dir Wind Speed Gust Speed Precip Events Conditions
12:53 AM 7.0 °F 0.1 °F 3.0 °F 84% 30.46 in 10.0 mi North 3.5 mph - N/A   Clear
2:53 AM 7.0 °F - 3.0 °F 84% 30.43 in 10.0 mi Calm Calm - N/A   Clear
3:53 AM 5.0 °F - 1.0 °F 84% 30.43 in 10.0 mi Calm Calm - N/A   Clear
4:14 AM 5.0 °F - 1.4 °F 85% 30.20 in 1.8 mi Calm Calm - N/A   Partly Cloudy
4:19 AM 6.8 °F - 1.4 °F 79% 30.21 in 1.0 mi Calm Calm - N/A   Haze
4:26 AM 6.8 °F - 1.4 °F 79% 30.20 in 0.2 mi Calm Calm - N/A Fog Light Freezing Fog
4:53 AM 5.0 °F - 1.0 °F 84% 30.45 in 0.2 mi Calm Calm - N/A Fog Light Freezing Fog
5:53 AM 1.0 °F - -0.9 °F 91% 30.50 in 0.2 mi Calm Calm - N/A Fog Light Freezing Fog
6:53 AM 1.0 °F -6.7 °F -2.0 °F 87% 30.52 in 0.8 mi East 3.5 mph - N/A   Mist
7:03 AM 1.4 °F - -0.4 °F 92% 30.23 in 1.2 mi Calm Calm - N/A   Scattered Clouds
7:05 AM 3.2 °F - -0.4 °F 85% 30.23 in 3.0 mi Calm Calm - N/A   Scattered Clouds
7:22 AM 3.2 °F -6.2 °F -0.4 °F 85% 30.24 in 1.8 mi ESE 4.6 mph - N/A   Partly Cloudy
7:24 AM 3.2 °F -6.2 °F -0.4 °F 85% 30.24 in 1.0 mi ESE 4.6 mph - N/A   Mist
7:34 AM -0.4 °F - -2.2 °F 92% 30.24 in 1.8 mi Calm Calm - N/A   Scattered Clouds
7:38 AM -0.4 °F - -2.2 °F 92% 30.24 in 1.0 mi Calm Calm - N/A   Mist
7:45 AM -0.4 °F - -5.8 °F 78% 30.24 in 0.5 mi Calm Calm - N/A   Haze
7:53 AM 1.0 °F - -2.9 °F 83% 30.54 in 1.0 mi Calm Calm - N/A   Mist
7:55 AM 1.4 °F - -2.2 °F 85% 30.25 in 3.0 mi Calm Calm - N/A   Partly Cloudy
8:09 AM 1.4 °F - -2.2 °F 85% 30.24 in 1.8 mi Calm Calm - N/A   Scattered Clouds
8:11 AM 1.4 °F - -2.2 °F 85% 30.24 in 1.0 mi Calm Calm - N/A   Mist
8:18 AM -0.4 °F - -5.8 °F 78% 30.24 in 0.2 mi Calm Calm - N/A Fog Light Freezing Fog
8:39 AM 3.2 °F - -0.4 °F 85% 30.24 in 1.5 mi Calm Calm - N/A   Mostly Cloudy
8:50 AM 3.2 °F - -0.4 °F 85% 30.24 in 0.8 mi Calm Calm - N/A   Mist
8:53 AM 1.9 °F - -0.0 °F 91% 30.53 in 1.0 mi Calm Calm - N/A   Mist
8:55 AM 1.4 °F - -0.4 °F 92% 30.24 in 1.8 mi Calm Calm - N/A   Scattered Clouds
9:02 AM 1.4 °F - -2.2 °F 85% 30.24 in 3.0 mi Calm Calm - N/A   Scattered Clouds
9:20 AM 1.4 °F - 1.4 °F 100% 30.25 in 2.5 mi Calm Calm - N/A   Mostly Cloudy
9:23 AM 3.2 °F - 3.2 °F 100% 30.25 in 1.5 mi Calm Calm - N/A   Mostly Cloudy
9:40 AM 5.0 °F - 3.2 °F 92% 30.24 in 2.5 mi Calm Calm - N/A   Mostly Cloudy
9:45 AM 6.8 °F - 5.0 °F 92% 30.24 in 1.8 mi Calm Calm - N/A   Scattered Clouds
9:53 AM 6.1 °F - 6.1 °F 100% 30.51 in 5.0 mi Calm Calm - N/A   Partly Cloudy
10:53 AM 7.0 °F - 6.1 °F 96% 30.52 in 10.0 mi Calm Calm - N/A   Clear
11:53 AM 9.0 °F - 6.1 °F 88% 30.50 in 10.0 mi Calm Calm - N/A   Clear
12:53 PM 10.9 °F - 5.0 °F 77% 30.49 in 10.0 mi Calm Calm - N/A   Clear
1:53 PM 10.9 °F - 6.1 °F 81% 30.48 in 10.0 mi Calm Calm - N/A   Clear
2:53 PM 10.0 °F 3.6 °F 3.9 °F 76% 30.48 in 10.0 mi NNW 3.5 mph - N/A   Clear
3:53 PM 12.0 °F - 5.0 °F 73% 30.50 in 10.0 mi Calm Calm - N/A   Clear
4:53 PM 8.1 °F - 3.0 °F 80% 30.52 in 10.0 mi Calm Calm - N/A   Clear
5:53 PM 8.1 °F - 3.0 °F 80% 30.55 in 10.0 mi Calm Calm - N/A   Clear
6:53 PM 7.0 °F - 1.9 °F 80% 30.56 in 10.0 mi Calm Calm - N/A   Clear
7:53 PM 9.0 °F - 3.0 °F 77% 30.56 in 10.0 mi Calm Calm - N/A   Clear
8:53 PM 8.1 °F - 1.9 °F 76% 30.56 in 10.0 mi Calm Calm - N/A   Clear
9:53 PM 5.0 °F - -0.0 °F 80% 30.57 in 10.0 mi Calm Calm - N/A   Clear
10:53 PM 1.9 °F -5.6 °F -2.9 °F 80% 30.58 in 10.0 mi NNE 3.5 mph - N/A   Unknown
11:53 PM -2.0 °F -15.4 °F -6.0 °F 83% 30.59 in 10.0 mi East 6.9 mph - N/A   Clear